[[{"header":{"parameterUnit":"m.s-1","parameterCategory":1,"la1":30.2992,"la2":30.254,"lo1":-89.0895,"lo2":-89.0443,"dy":0.0025,"dx":0.0025,"nx":19,"ny":19,"refTime":"2026-03-26T03:00:00:Z","depth":0,"parameterNumber":2,"parameterNumberName":"U-component_of_WINDS"},"data":[0,0,0,-2.1378,-2.1381,-2.1508,-2.1509,-2.1673,-2.1674,0,0,0,0,0,0,0,0,0,0,0,-2.1341,-2.1342,-2.1378,-2.1381,-2.1508,-2.1509,-2.1672,-2.1674,0,0,0,0,0,0,0,0,0,0,0,-2.134,-2.1341,-2.1343,-2.1382,-2.1508,-2.1509,-2.1672,-2.1576,0,0,0,0,0,0,0,0,0,0,-2.1452,-2.1417,-2.1341,-2.1343,-2.1382,-2.1508,-2.1509,-2.1571,-2.1582,-2.1615,0,-2.1645,0,-2.1662,-2.1685,-2.1686,0,0,0,-2.1381,-2.1408,-2.1443,-2.1343,-2.1384,-2.1508,-2.1451,-2.1577,-2.1589,-2.1629,-2.1647,-2.1653,-2.1665,-2.1686,-2.1687,-2.1881,-2.1882,0,0,-2.1374,-2.1364,-2.1434,-2.145,-2.1431,-2.1447,-2.1455,-2.1584,-2.1603,-2.1648,-2.1657,-2.1667,-2.1687,-2.1688,-2.188,-2.1881,0,0,0,-2.1354,-2.1359,-2.139,-2.1444,-2.1467,-2.1451,-2.146,-2.1597,-2.1608,-2.1659,-2.1669,-2.1688,-2.169,-2.1879,-2.1881,-2.1916,0,0,0,-2.135,-2.1347,-2.1387,-2.1382,-2.1464,-2.1534,-2.147,-2.1599,-2.1614,-2.1669,-2.1688,-2.1692,-2.1878,-2.188,-2.1913,-2.1935,0,0,0,-2.1332,-2.1345,-2.1364,-2.1381,-2.1435,-2.1532,-2.155,-2.1603,-2.1621,-2.1686,-2.1692,-2.1878,-2.188,-2.191,-2.193,-2.1983,0,0,0,-2.1311,-2.1393,-2.1364,-2.146,-2.1434,-2.1553,-2.1549,-2.1638,-2.1698,-2.1689,-2.1878,-2.1881,-2.191,-2.1927,-2.198,-2.2026,-2.2044,0,0,-2.1409,-2.1404,-2.1462,-2.144,-2.1561,-2.1534,-2.1661,-2.1725,-2.1741,-2.1833,-2.1838,-2.1914,-2.193,-2.1983,-2.2149,-2.2163,0,0,0,-2.149,-2.1531,-2.1565,-2.1622,-2.1673,-2.1719,-2.1766,-2.179,-2.1869,-2.1786,-2.1948,-2.1958,-2.1989,-2.2011,-2.2024,-2.2051,-2.189,-2.189,-2.189,-2.1613,-2.1629,-2.1725,-2.1757,-2.1812,-2.1859,-2.1906,-2.1946,-2.1946,-2.1984,-2.2011,-2.211,-2.2136,-2.2145,-2.2174,-2.2037,-2.2037,-2.2037,-2.2037,-2.1758,-2.1819,-2.1817,-2.191,-2.1926,-2.2005,-2.2054,-2.2051,-2.2126,-2.2091,-2.2119,-2.2079,-2.2161,-2.2186,-2.204,-2.2039,-2.2039,-2.2039,-2.2039,-2.1841,-2.1873,-2.1901,-2.1986,-2.2049,-2.2078,-2.2151,-2.2163,-2.2175,-2.2203,-2.2234,-2.2234,-2.2235,-2.2217,-2.2218,-2.2218,-2.2218,-2.2218,-2.2219,-2.1915,-2.1946,-2.2006,-2.2068,-2.2107,-2.2159,-2.2209,-2.2247,-2.2293,-2.2296,-2.2296,-2.2292,-2.2166,-2.2133,-2.2224,-2.2223,-2.2222,-2.2222,-2.2222,-2.2056,-2.2027,-2.2119,-2.2157,-2.2232,-2.2295,-2.231,-2.2387,-2.2421,-2.2457,-2.2447,-2.2351,-2.2348,-2.2338,-2.2312,-2.2443,-2.2443,-2.2443,-2.2443,-2.2126,-2.2125,-2.2223,-2.2284,-2.2346,-2.2369,-2.2473,-2.2513,-2.2549,-2.2571,-2.2554,-2.252,-2.251,-2.2512,-2.2499,-2.2474,-2.2644,-2.2644,-2.2644,-2.2213,-2.222,-2.2306,-2.2341,-2.2401,-2.2452,-2.255,-2.2621,-2.2656,-2.2653,-2.2588,-2.258,-2.2525,-2.2507,-2.2501,-2.248,-2.2435,0,0]},{"header":{"parameterUnit":"m.s-1","parameterCategory":1,"la1":30.2992,"la2":30.254,"lo1":-89.0895,"lo2":-89.0443,"dy":0.0025,"dx":0.0025,"nx":19,"ny":19,"refTime":"2026-03-26T03:00:00:Z","depth":0,"parameterNumber":3,"parameterNumberName":"V-component_of_WINDS"},"data":[0,0,0,-0.0421,-0.042,-0.0399,-0.0399,-0.0376,-0.0376,0,0,0,0,0,0,0,0,0,0,0,-0.043,-0.0429,-0.0421,-0.042,-0.0399,-0.0399,-0.0376,-0.0376,0,0,0,0,0,0,0,0,0,0,0,-0.043,-0.0429,-0.0429,-0.042,-0.0399,-0.0399,-0.0376,-0.0391,0,0,0,0,0,0,0,0,0,0,-0.041,-0.0421,-0.0429,-0.0429,-0.042,-0.0399,-0.0399,-0.0391,-0.039,-0.0387,0,-0.0386,0,-0.038,-0.0374,-0.0374,0,0,0,-0.0419,-0.0422,-0.0414,-0.0429,-0.042,-0.0399,-0.0408,-0.039,-0.0389,-0.0385,-0.0385,-0.0384,-0.038,-0.0374,-0.0374,-0.0365,-0.0365,0,0,-0.042,-0.0427,-0.0415,-0.0413,-0.0417,-0.0409,-0.0408,-0.0389,-0.039,-0.0385,-0.0384,-0.038,-0.0374,-0.0374,-0.0365,-0.0365,0,0,0,-0.0424,-0.0428,-0.042,-0.0414,-0.041,-0.0408,-0.0407,-0.0391,-0.0388,-0.0383,-0.0379,-0.0374,-0.0374,-0.0365,-0.0365,-0.0374,0,0,0,-0.0425,-0.0431,-0.0421,-0.0425,-0.0411,-0.04,-0.0409,-0.0389,-0.0387,-0.0379,-0.0374,-0.0374,-0.0365,-0.0365,-0.0374,-0.0378,0,0,0,-0.043,-0.0431,-0.0429,-0.0426,-0.0417,-0.04,-0.0396,-0.0388,-0.0384,-0.0374,-0.0374,-0.0365,-0.0365,-0.0374,-0.0377,-0.0377,0,0,0,-0.0438,-0.0438,-0.0429,-0.0428,-0.0417,-0.0406,-0.0396,-0.0388,-0.038,-0.0374,-0.0365,-0.0365,-0.0374,-0.0377,-0.0377,-0.0379,-0.038,0,0,-0.0443,-0.0439,-0.0438,-0.0429,-0.0422,-0.0409,-0.0402,-0.0389,-0.0381,-0.0371,-0.0371,-0.0374,-0.0377,-0.0377,-0.0385,-0.0387,0,0,0,-0.0442,-0.0441,-0.0437,-0.043,-0.0419,-0.041,-0.0397,-0.0391,-0.0382,-0.0378,-0.0374,-0.0375,-0.0375,-0.0376,-0.0377,-0.0376,-0.0366,-0.0366,-0.0366,-0.046,-0.0449,-0.0446,-0.0432,-0.0426,-0.0411,-0.0404,-0.0395,-0.0387,-0.0386,-0.0383,-0.0389,-0.039,-0.0391,-0.039,-0.0383,-0.0383,-0.0383,-0.0383,-0.0466,-0.0463,-0.045,-0.0443,-0.0431,-0.0425,-0.041,-0.0404,-0.0396,-0.0391,-0.039,-0.0385,-0.0392,-0.0391,-0.0383,-0.0383,-0.0383,-0.0383,-0.0383,-0.0477,-0.0473,-0.0466,-0.0454,-0.0446,-0.0432,-0.0425,-0.0414,-0.0405,-0.0404,-0.0399,-0.0399,-0.0398,-0.0402,-0.0402,-0.0402,-0.0402,-0.0403,-0.0403,-0.0491,-0.0483,-0.0478,-0.0465,-0.0459,-0.0449,-0.0433,-0.0426,-0.0416,-0.0409,-0.0409,-0.0401,-0.0395,-0.0394,-0.0403,-0.0403,-0.0403,-0.0403,-0.0403,-0.0502,-0.0497,-0.049,-0.0483,-0.0467,-0.0459,-0.0445,-0.0432,-0.0425,-0.0421,-0.0412,-0.041,-0.0406,-0.0405,-0.0404,-0.0415,-0.0415,-0.0415,-0.0415,-0.0511,-0.0508,-0.0497,-0.0487,-0.0476,-0.0462,-0.0453,-0.044,-0.0426,-0.042,-0.0417,-0.0415,-0.0414,-0.041,-0.0409,-0.0408,-0.042,-0.042,-0.042,-0.0517,-0.0512,-0.0506,-0.0492,-0.0478,-0.0466,-0.0457,-0.0445,-0.0428,-0.042,-0.0416,-0.0416,-0.0412,-0.0411,-0.0404,-0.0403,-0.0401,0,0]}]]